Location: Oberwangen
(47.4286°N, 8.9679°E)
Time: 20:29:57
(UTC+00:00)

Cosmos 1953 Rocket - Pass Details

Date: 01 November 2021
Orbit: 603 x 635 km, 82.5° (Epoch: 03 December)

Event Time Altitude Azimuth Distance (km) Brightness Sun altitude
Rises 19:02:29 0° 335° (NNW) 2,935 7.5 -30.1°
Reaches altitude 10° 19:05:22 10° 316° (NW) 2,016 6.8 -30.5°
Maximum altitude 19:08:16 17° 276° (W) 1,579 6.4 -31.0°
Drops below altitude 10° 19:11:09 10° 235° (SW) 1,993 6.6 -31.5°
Sets 19:13:59 0° 215° (SW) 2,886 7.2 -32.0°
